"indice_tiempo","ciudad_de_buenos_aires","provincia_de_buenos_aires"
"2005-01-01","","326086"
"2005-02-01","","442800"
"2005-03-01","","567036"
"2005-04-01","","633257"
"2005-05-01","","685008"
"2005-06-01","","769797"
"2005-07-01","","683276"
"2005-08-01","","731335"
"2005-09-01","","748764"
"2005-10-01","","732640"
"2005-11-01","","712312"
"2005-12-01","","1333206"
"2006-01-01","","447792"
"2006-02-01","","633841"
"2006-03-01","","749434"
"2006-04-01","","686520"
"2006-05-01","","841621"
"2006-06-01","","907552"
"2006-07-01","","948378"
"2006-08-01","","936549"
"2006-09-01","","852365"
"2006-10-01","","951823"
"2006-11-01","","861477"
"2006-12-01","","1604852"
"2007-01-01","","523119"
"2007-02-01","","712071"
"2007-03-01","","1282011"
"2007-04-01","","929552"
"2007-05-01","","1196960"
"2007-06-01","","1382185"
"2007-07-01","","1244694"
"2007-08-01","","1280586"
"2007-09-01","","1193974"
"2007-10-01","","1441776"
"2007-11-01","","1307113"
"2007-12-01","","664584"
"2008-01-01","1165502","916754"
"2008-02-01","1344883","1681176"
"2008-03-01","946826","1254355"
"2008-04-01","1608014","1385802"
"2008-05-01","1407008","1444977"
"2008-06-01","1505069","1485053"
"2008-07-01","1517341","1551552"
"2008-08-01","1295347","1305177"
"2008-09-01","1450905","1277981"
"2008-10-01","1627272","1592681"
"2008-11-01","1348279","1407628"
"2008-12-01","1496832","1820199"
"2009-01-01","734501","582642"
"2009-02-01","618186","649995"
"2009-03-01","1065213","915879"
"2009-04-01","1036833","890531"
"2009-05-01","995773","901396"
"2009-06-01","1294523","1243263"
"2009-07-01","1225767","961316"
"2009-08-01","1884868","1267910"
"2009-09-01","1628847","1265267"
"2009-10-01","1429485","1391723"
"2009-11-01","1612317","1511206"
"2009-12-01","2127452","1924144"
"2010-01-01","1286936","876678"
"2010-02-01","1273714","1033652"
"2010-03-01","1678728","1559729"
"2010-04-01","1617644","1334843"
"2010-05-01","1908555","1419765"
"2010-06-01","1952462","1551010"
"2010-07-01","2059039","1637882"
"2010-08-01","2006361","1627515"
"2010-09-01","2117492","1779795"
"2010-10-01","2032805","1695587"
"2010-11-01","2443321","2038522"
"2010-12-01","2753273","3177500"
"2011-01-01","1767016","968144"
"2011-02-01","1625527","1581378"
"2011-03-01","1894457","1987945"
"2011-04-01","1862292","2013587"
"2011-05-01","2164226","2518862"
"2011-06-01","2305006","2529430"
"2011-07-01","2266610","2624291"
"2011-08-01","2552309","2742726"
"2011-09-01","2626858","2871548"
"2011-10-01","2475440","2826455"
"2011-11-01","2763595","3147840"
"2011-12-01","2905715","4337345"
"2012-01-01","1660516","1353501"
"2012-02-01","1341914","1525694"
"2012-03-01","2223569","2565854"
"2012-04-01","1532533","2028156"
"2012-05-01","2143175","2807642"
"2012-06-01","2411453","2449597"
"2012-07-01","1748839","1506980"
"2012-08-01","1587352","2839970"
"2012-09-01","1483726","2303118"
"2012-10-01","1673660","2343838"
"2012-11-01","1561255","2472402"
"2012-12-01","2077890","4183822"
"2013-01-01","1028187","834539"
"2013-02-01","849612","1260622"
"2013-03-01","1311620","1985644"
"2013-04-01","1369003","1629422"
"2013-05-01","1728175","2552803"
"2013-06-01","1516123","2087734"
"2013-07-01","1566483","2254970"
"2013-08-01","1709385","2301495"
"2013-09-01","1881659","2539283"
"2013-10-01","2212363","2759117"
"2013-11-01","1927468","2829536"
"2013-12-01","2681256","4777083"
"2014-01-01","1591447","1324454"
"2014-02-01","1739872","1831181"
"2014-03-01","1605096","1771807"
"2014-04-01","2002967","516436"
"2014-05-01","2199837","2317637"
"2014-06-01","2441537","3689151"
"2014-07-01","2617274","3370927"
"2014-08-01","2094780","2908177"
"2014-09-01","2698855","3349814"
"2014-10-01","3247013","3512520"
"2014-11-01","2407336","3165591"
"2014-12-01","6028391","5052065"
"2015-01-01","1618470","1382769"
"2015-02-01","1408030","1664979"
"2015-03-01","2439511","2775552"
"2015-04-01","2643927","3202655"
"2015-05-01","2968000","3529661"
"2015-06-01","4037791","3974835"
"2015-07-01","3982688","5092400"
"2015-08-01","3395582","3355831"
"2015-09-01","3837117","4113984"
"2015-10-01","3494950","4789290"
"2015-11-01","4436694","5101979"
"2015-12-01","6266538","7616900"
"2016-01-01","2688686","2048057"
"2016-02-01","2669163","2520851"
"2016-03-01","4494642","4495323"
"2016-04-01","4516469","4552794"
"2016-05-01","5824601","5277176"
"2016-06-01","5815679","5387944"
"2016-07-01","5689628","5782851"
"2016-08-01","7272547","6989326"
"2016-09-01","6982361","6913701"
"2016-10-01","7839603","7225777"
"2016-11-01","9525262","7893383"
"2016-12-01","12700715","14842690"
"2017-01-01","7900528","5196917"
"2017-02-01","7657891","6024045"
"2017-03-01","9276690","9082166"
"2017-04-01","8961933","8301340"
"2017-05-01","11374930","10467478"
"2017-06-01","11799263","11617386"
"2017-07-01","12346975","11948331"
"2017-08-01","14022349","14313640"
"2017-09-01","14272921","14225325"
"2017-10-01","14956343","14704152"
"2017-11-01","16499749","16374306"
"2017-12-01","20113842","24923698"
"2018-01-01","12920426","12435449"
"2018-02-01","11767851","13350831"
"2018-03-01","17858958","20639942"
"2018-04-01","17839435","19827521"
"2018-05-01","20101359","22369937"
"2018-06-01","18765954","19122566"
"2018-07-01","16191436","18669968"
"2018-08-01","17221264","19983450"
"2018-09-01","17181471","16820887"
"2018-10-01","17746690","18044877"
"2018-11-01","16940933","18034264"
"2018-12-01","18695029","26800066"
"2019-01-01","10357301","8043588"
"2019-02-01","9532514","10157554"
"2019-03-01","13031159","13641177"
"2019-04-01","13809419","14300548"
"2019-05-01","17065621","17986559"
"2019-06-01","13997094","15592020"
